Location: Foligno
(42.9600°N, 12.7050°E)
Time: 06:28:31
(UTC+01:00)

ISS - Pass Details

Date: 10 November 2018
Orbit: 401 x 409 km, 51.6° (Epoch: 21 November)

Event Time Altitude Azimuth Distance (km) Brightness Sun altitude
Exits shadow 04:25:21 14° 47° (NE) 1,234 -0.9 -27.5°
Drops below altitude 10° 04:26:11 10° 58° (ENE) 1,458 -0.3 -27.3°
Sets 04:28:40 0° 77° (ENE) 2,324 1.3 -26.9°
